SCP
0 -0 0 0 0 0 0 0 0 0 0 0 0 0 0 0 0 0 0 0 -0 0 0 0 0 0 0 0 0 0 0 0 0 0 0 0 0 0 0 0 0 0 0 0
0 -0 0 0 0 0 0 0 0 0 0 0 0 0 0 0 0 0 0 0 0 -0 -0 0 0 0 0 0 0 0 0 0 0 0 0 0 0 0 0 0 0 0 0 0
0 0 -0 0 0 0 0 0 0 0 0 0 0 0 0 0 0 0 0 0 0 0 0 0 0 0 0 0 0 0 0 0 0 0 0 0 0 0 0 0 0 0 0 0
0 -0 -0 0 0 0 0 0 0 0 0 0 0 0 0 0 0 0 0 0 0 0 0 0 0 -0 0 0 0 0 0 0 0 0 0 0 0 0 0 0 0 0 0 0
0 0 0 0 0 0 0 0 0 0 0 0 0 0 0 0 0 0 0 0 0 0 0 0 0 0 0 0 0 0 -0 0 0 -0 0 0 0 0 0 0 0 0 0 0
0 0 -0 0 0 0 0 0 0 0 0 0 0 0 0 0 0 0 0 0 0 0 -0 -0 -0 -0 0 -0 -0 0 0 0 0 0 0 0 0 0 0 0 0 0 0 0
0 -0 -0 0 0 0 0 0 0 0 0 0 0 0 0 0 0 0 0 0 0 0 0 0 0 0 0 0 0 0 0 0 0 0 0 0 0 0 0 0 0 0 -0 0
0 -0 0 0 0 0 0 0 0 0 0 0 0 0 0 0 0 0 0 0 0 0 0 -0 0 0 0 -0 0 0 -0 0 0 0 0 0 0 0 0 0 -0 -0 0 0
-0 0 0 0 0 0 0 -0 0 0 0 0 0 0 0 0 0 0 0 0 0 0 -0 0 0 -0 -0 -0 -0 -0 0 0 0 0 0 0 -0 -0 -0 0 0 0 0 0
0 -0 -0 -0 -0 0 0 0 0 0 0 0 0 0 0 0 0 0 0 0 0 0 0 0 0 -0 -0 -0 -0 0 -0 -0 0 -0 -0 -0 0 0 0 0 0 0 0 0
0 -0 -0 -0 -0 0 -0 0 0 0 0 0 0 0 0 0 0 0 0 0 0 0 -0 -0 -0 -0 -0 -0 -0 -0 -0 -0 -0 0 0 0 0 0 0 0 0 0 0 0
-0 0 -0 0 -0 -0 -0 -0 0 0 0 0 0 0 0 0 0 0 0 0 0 0 0 -0 -0 -0 -0 -0 0 -0 -0 0 0 0 0 0 0 0 0 0 0 0 0 0
-0 0 0 0 0 -0 -0 -0 0 0 0 0 0 0 0 0 0 0 0 0 0 0 0 0 0 0 -0 0 0 0 0 0 0 0 0 0 0 0 0 0 0 0 0 0
0 -0 0 -0 -0 -0 -0 -0 0 0 0 0 0 0 0 0 0 0 0 0 0 0 0 0 0 0 0 0 0 0 0 0 0 0 0 0 0 0 0 0 0 0 0 0
-0 0 0 0 0 0 0 0 0 0 0 0 0 0 0 0 0 0 0 0 0 0 0 0 0 0 0 0 0 0 0 0 0 0 0 0 0 0 0 0 0 0 0 0
-0 -0 0 0 0 0 0 0 0 0 0 0 0 0 0 0 0 0 0 0 0 0 0 0 0 0 0 0 0 0 0 0 0 0 0 0 0 0 0 0 0 0 0 0
-0 0 0 0 -0 -0 -0 0 0 0 0 0 0 0 0 0 0 0 0 0 0 0 0 0 0 0 0 0 0 0 0 0 0 0 0 0 0 0 0 0 0 0 0 0
-0 0 -0 0 0 0 0 0 0 0 0 0 0 0 0 0 0 0 0 0 0 0 0 0 0 0 0 0 0 0 0 0 0 0 0 0 0 0 0 0 0 0 0 0
-0 -0 0 0 0 0 0 0 0 0 0 0 0 0 0 0 0 0 0 0 0 0 0 0 0 0 0 0 0 0 0 0 0 0 0 0 0 0 0 0 0 0 0 0
0 0 0 0 0 0 0 0 0 0 0 0 0 0 0 0 0 0 0 0 0 0 0 0 0 0 0 0 0 0 0 0 0 0 0 0 0 0 0 0 0 0 0 0
0 0 0 0 0 0 0 0 0 0 0 0 0 0 0 0 0 0 0 -0 -0 0 0 0 0 0 0 0 0 0 0 0 0 0 0 0 0 0 0 0 0 0 0 0
0 0 0 0 0 0 0 0 0 0 0 0 0 0 0 0 0 0 -0 -0 -0 0 0 0 0 0 0 0 0 0 0 0 0 0 0 0 0 0 0 0 0 0 0 0
0 0 0 0 0 -0 -0 0 0 0 0 0 0 0 0 0 0 0 -0 -0 0 0 0 0 0 0 0 0 0 0 0 0 0 0 0 0 0 0 0 0 0 0 0 0
0 0 0 0 0 0 -0 -0 0 0 0 0 0 0 0 0 -0 -0 0 0 0 0 0 0 0 0 0 0 0 0 0 0 0 0 0 0 0 0 0 0 0 0 0 0
0 0 0 0 0 0 0 0 0 0 0 0 0 0 0 -0 -0 0 0 0 0 0 0 0 0 0 0 0 0 0 0 0 0 0 0 0 0 0 0 0 0 0 0 0
0 0 0 0 0 0 0 0 0 0 0 0 0 0 0 0 0 0 0 0 0 0 0 0 0 0 0 0 0 0 0 0 0 0 0 0 0 0 0 0 0 0 0 0
0 0 0 0 0 0 0 0 0 0 0 0 0 0 0 0 0 0 0 0 0 0 0 0 0 0 0 0 0 0 0 0 0 0 0 0 0 0 0 0 0 0 0 0
Wind_Speed_500mb
20 38 28 30 37 35 16 28 11 26 43 40 51 50 38 60 61 61 63 63 60 50 38 30 19 5 22 35 50 62 68 68 65 59 58 58 60 66 75 74 71 71 75 75
10 7 6 26 34 31 28 26 26 25 44 37 69 65 39 57 59 58 61 65 61 48 38 31 24 17 25 41 53 59 66 70 67 65 66 67 83 89 86 89 86 82 81 74
11 12 20 8 10 8 12 14 9 24 36 40 42 39 39 60 58 55 58 58 55 51 41 33 33 28 32 41 47 57 67 74 79 82 85 93 96 98 97 93 90 82 74 63
9 16 8 9 12 14 15 25 10 17 29 36 38 55 36 64 59 57 52 49 49 46 45 39 37 45 47 42 52 67 76 85 92 93 104 108 106 100 96 90 82 75 64 56
1 4 16 12 4 3 2 10 6 16 26 41 53 30 14 68 55 46 42 37 38 38 40 41 45 47 57 67 70 75 82 88 97 104 105 102 99 93 85 78 71 63 55 48
3 1 9 11 7 4 7 7 6 9 22 33 42 20 13 52 51 49 43 37 36 37 41 45 48 48 63 74 80 86 91 95 99 100 96 94 89 82 74 66 62 55 50 40
7 9 19 24 24 4 7 10 21 24 23 24 11 10 31 33 44 40 43 46 43 43 48 51 49 56 73 80 85 85 88 89 86 85 82 78 76 69 61 58 54 50 45 38
7 6 15 30 3 9 5 13 14 22 19 19 18 24 26 28 39 45 45 43 45 51 59 62 64 68 79 80 75 75 78 79 75 70 67 62 59 58 51 47 44 41 37 35
20 14 11 18 18 19 17 30 14 16 15 15 17 23 21 22 27 36 42 44 46 51 56 61 63 65 77 76 70 70 69 66 61 57 54 49 47 46 41 36 32 32 27 23
2 11 35 56 52 58 56 23 14 11 8 8 10 13 12 13 17 23 27 30 33 38 46 53 54 57 61 61 58 58 58 56 52 48 46 40 35 31 29 28 25 21 20 17
12 31 43 57 50 30 19 21 13 10 1 3 5 7 9 10 13 16 21 24 25 30 35 39 39 42 43 43 42 45 48 47 44 41 37 35 33 28 25 25 18 11 13 10
15 22 8 7 9 9 39 45 28 14 7 8 5 7 8 8 11 14 17 21 22 26 29 33 33 34 34 31 27 30 36 35 33 29 24 24 28 31 30 23 19 17 15 11
10 17 14 6 8 9 18 24 18 10 9 10 11 6 6 5 9 13 16 19 19 21 25 26 26 29 29 26 20 19 20 25 20 13 11 12 12 13 14 18 15 12 14 15
48 19 14 21 10 20 19 19 17 11 10 12 14 11 10 7 8 12 14 15 18 19 20 21 21 22 22 22 21 17 16 15 9 5 11 11 11 9 8 8 12 15 18 17
62 52 32 12 26 22 26 21 18 13 9 15 19 17 15 12 9 11 14 16 17 17 18 18 18 17 19 19 21 21 18 15 12 9 13 16 18 20 19 17 16 16 15 16
50 60 49 44 25 31 30 26 24 19 14 18 21 21 17 15 13 11 12 15 15 16 18 18 18 18 16 18 21 23 19 19 16 16 15 16 18 19 21 21 20 18 18 20
42 60 66 63 59 53 40 26 16 16 17 17 23 29 25 21 18 18 16 15 15 15 15 13 11 14 16 17 20 22 23 26 23 21 19 19 20 21 23 25 24 24 25 25
40 28 38 40 45 44 44 39 29 26 18 17 28 32 32 28 23 19 18 17 18 18 17 16 17 19 21 17 20 23 24 27 25 21 22 22 23 25 27 28 28 30 31 32
55 37 27 29 35 38 34 39 36 31 28 24 30 36 34 30 26 23 23 23 23 21 20 20 24 23 24 22 21 21 21 22 24 24 24 25 27 28 30 31 32 34 36 35
58 49 33 26 26 32 31 28 35 37 31 28 31 39 42 37 33 31 30 26 24 25 25 23 24 21 19 18 18 19 19 21 24 26 27 27 28 30 32 34 36 36 35 35
50 53 42 30 23 22 23 26 29 33 33 34 37 37 37 36 37 36 35 31 28 26 25 21 19 18 17 17 19 20 22 24 26 28 29 30 32 34 35 36 36 36 37 40
54 60 52 38 27 22 24 25 28 30 31 34 37 37 38 40 35 30 28 26 27 23 22 21 20 19 19 20 21 24 26 28 29 29 30 31 33 34 36 38 39 40 42 43
52 50 53 48 33 27 28 29 29 29 32 37 38 37 36 31 28 27 24 24 23 21 20 21 20 20 22 24 25 26 27 28 29 30 32 36 39 40 42 42 43 44 44 45
49 45 45 44 39 35 35 32 29 30 33 35 34 35 34 33 32 30 29 25 23 21 21 22 22 23 25 28 28 30 31 33 34 36 38 41 42 43 44 44 45 46 48 50
46 44 48 47 42 34 34 34 34 35 39 41 41 39 37 35 33 30 29 28 26 23 24 24 25 27 30 31 32 34 36 38 39 42 43 43 44 46 47 48 49 50 52 53
50 47 47 41 32 32 37 37 35 36 41 45 46 45 43 40 37 34 31 29 28 29 29 30 31 32 34 36 37 38 41 44 45 46 48 48 48 49 50 51 52 53 54 55
54 46 43 41 38 39 40 38 37 38 40 43 42 43 44 42 40 37 35 34 35 35 35 36 37 37 37 39 40 42 45 48 49 50 51 51 52 52 53 54 54 54 55 56
Wind_Direction_500mb
249 263 273 269 273 284 258 251 261 289 304 325 329 325 339 346 343 342 343 348 357 3 5 2 6 358 162 170 177 184 188 184 180 179 175 170 168 163 158 154 150 149 148 148
288 282 113 284 275 262 261 266 266 288 309 336 325 327 349 351 346 346 350 359 8 18 26 35 52 85 141 151 166 175 175 167 168 162 155 149 151 150 152 148 148 149 146 145
272 323 313 332 244 255 268 244 253 325 314 324 322 329 7 350 349 350 356 8 21 31 41 54 72 93 118 134 147 153 150 150 149 148 147 148 148 147 148 145 146 146 137 138
280 329 14 250 302 247 246 280 254 275 310 321 319 324 11 5 356 358 10 19 30 44 56 71 91 102 113 127 137 140 139 141 144 145 146 147 147 145 142 143 141 131 139 144
209 256 294 303 217 347 30 285 223 300 324 332 334 330 11 7 13 13 18 30 44 57 72 84 94 107 116 120 128 132 132 135 139 142 141 142 140 140 137 131 129 139 140 140
69 143 234 242 182 359 165 280 206 338 335 341 347 16 344 359 17 27 33 40 54 69 82 91 101 115 117 117 122 122 130 133 136 138 138 136 133 132 128 133 137 136 134 136
197 253 283 250 260 280 77 270 347 355 348 349 2 347 332 5 23 34 44 52 57 68 81 96 107 114 114 118 115 122 127 129 130 130 131 129 125 124 136 139 136 136 137 143
172 211 284 208 6 195 172 342 328 346 357 0 359 8 14 21 38 46 53 63 71 81 90 97 101 104 106 108 115 119 120 119 121 119 116 121 129 134 136 136 136 138 148 149
190 217 250 198 241 235 268 326 302 336 356 13 6 18 21 31 52 59 61 71 80 87 95 99 102 104 107 109 113 113 110 111 116 122 124 128 130 128 131 136 143 144 145 147
129 254 236 257 261 260 275 255 302 319 356 33 15 17 43 54 66 74 76 84 90 95 99 103 106 109 109 116 120 124 123 122 123 124 123 124 124 127 133 134 137 148 154 158
263 279 268 263 255 250 221 223 281 285 316 91 63 45 54 76 81 95 90 96 105 104 107 109 112 112 115 119 124 125 125 124 126 127 130 132 134 133 136 135 132 147 159 168
224 230 207 255 311 286 224 236 251 225 183 150 107 80 69 95 102 106 116 114 119 117 118 117 118 116 116 119 127 129 131 131 131 133 141 151 157 158 158 164 168 173 184 204
230 215 212 221 195 149 156 172 193 202 193 157 146 116 91 72 115 118 124 134 135 130 127 123 127 124 121 122 129 133 129 129 126 120 138 157 171 181 177 177 183 209 227 236
224 213 222 221 223 205 189 196 201 193 171 170 154 148 133 125 131 136 143 146 150 149 143 139 139 136 134 134 138 143 146 143 133 140 154 161 175 189 199 206 220 227 237 244
222 222 226 228 223 221 215 210 209 198 195 195 171 166 157 152 152 154 158 157 156 160 167 165 165 172 169 168 163 165 174 192 204 209 192 188 193 197 205 217 225 232 250 246
212 213 222 226 227 221 219 226 228 225 222 202 185 180 177 170 167 161 166 167 171 175 175 174 175 185 192 194 197 194 204 215 222 223 223 225 227 231 234 240 245 253 265 255
185 201 215 223 223 222 220 220 234 229 217 214 197 184 183 183 179 180 176 171 182 182 181 181 194 201 202 209 215 222 223 225 229 232 238 240 240 246 251 255 266 270 270 262
218 233 229 228 224 223 227 230 230 220 220 217 203 194 187 191 187 185 184 189 191 194 198 202 214 224 236 236 236 237 233 224 230 242 251 254 253 252 256 263 269 273 272 265
215 219 214 218 219 224 225 227 227 223 230 231 209 201 190 193 194 195 198 200 201 206 215 223 239 248 251 247 242 244 240 239 239 245 251 253 256 260 263 267 269 269 266 263
206 209 213 211 212 215 218 221 215 216 223 217 201 196 198 194 198 203 206 208 212 219 233 251 255 250 243 243 246 249 251 254 256 256 257 261 265 268 272 273 275 274 273 271
201 201 201 199 196 196 201 206 208 209 208 207 201 200 202 198 204 210 212 214 216 225 243 244 244 243 248 257 261 264 265 265 266 264 263 264 266 269 272 273 275 276 275 274
200 200 200 203 206 207 203 196 185 191 197 194 192 196 203 211 208 206 199 205 223 229 236 243 250 252 262 274 273 272 270 270 271 272 275 278 279 280 280 279 279 278 278 280
199 201 205 210 208 208 199 194 193 189 190 189 192 197 199 201 208 214 213 218 224 230 240 250 257 266 270 273 274 272 272 274 277 278 278 278 278 277 278 280 282 282 284 285
199 198 196 198 204 207 199 195 194 190 187 192 197 199 200 198 200 202 207 218 227 238 250 258 262 269 274 276 278 278 278 275 275 277 277 279 280 281 283 284 284 284 286 287
199 198 199 203 206 204 196 199 199 199 198 198 197 199 200 203 207 214 219 226 233 244 255 261 264 268 271 272 273 275 274 273 275 277 279 281 281 281 282 282 283 284 285 287
200 202 208 209 208 205 204 207 207 207 207 207 204 203 205 210 217 223 229 234 242 247 255 262 263 265 268 272 275 276 276 275 275 277 280 282 282 282 284 283 283 284 286 289
204 206 208 208 208 209 210 212 215 216 217 217 216 215 216 219 223 227 232 239 245 251 257 261 263 265 267 270 274 275 275 275 276 277 280 282 282 281 281 282 285 287 290 293
Wind_Speed_850mb
20 38 28 30 37 35 16 28 11 26 43 40 51 50 38 60 61 61 63 63 60 50 38 30 19 5 22 35 50 62 68 68 65 59 58 58 60 66 75 74 71 71 75 75
10 7 6 26 34 31 28 26 26 25 44 37 69 65 39 57 59 58 61 65 61 48 38 31 24 17 25 41 53 59 66 70 67 65 66 67 83 89 86 89 86 82 81 74
11 12 20 8 10 8 12 14 9 24 36 40 42 39 39 60 58 55 58 58 55 51 41 33 33 28 32 41 47 57 67 74 79 82 85 93 96 98 97 93 90 82 74 63
9 16 8 9 12 14 15 25 10 17 29 36 38 55 36 64 59 57 52 49 49 46 45 39 37 45 47 42 52 67 76 85 92 93 104 108 106 100 96 90 82 75 64 56
1 4 16 12 4 3 2 10 6 16 26 41 53 30 14 68 55 46 42 37 38 38 40 41 45 47 57 67 70 75 82 88 97 104 105 102 99 93 85 78 71 63 55 48
3 1 9 11 7 4 7 7 6 9 22 33 42 20 13 52 51 49 43 37 36 37 41 45 48 48 63 74 80 86 91 95 99 100 96 94 89 82 74 66 62 55 50 40
7 9 19 24 24 4 7 10 21 24 23 24 11 10 31 33 44 40 43 46 43 43 48 51 49 56 73 80 85 85 88 89 86 85 82 78 76 69 61 58 54 50 45 38
7 6 15 30 3 9 5 13 14 22 19 19 18 24 26 28 39 45 45 43 45 51 59 62 64 68 79 80 75 75 78 79 75 70 67 62 59 58 51 47 44 41 37 35
20 14 11 18 18 19 17 30 14 16 15 15 17 23 21 22 27 36 42 44 46 51 56 61 63 65 77 76 70 70 69 66 61 57 54 49 47 46 41 36 32 32 27 23
2 11 35 56 52 58 56 23 14 11 8 8 10 13 12 13 17 23 27 30 33 38 46 53 54 57 61 61 58 58 58 56 52 48 46 40 35 31 29 28 25 21 20 17
12 31 43 57 50 30 19 21 13 10 1 3 5 7 9 10 13 16 21 24 25 30 35 39 39 42 43 43 42 45 48 47 44 41 37 35 33 28 25 25 18 11 13 10
15 22 8 7 9 9 39 45 28 14 7 8 5 7 8 8 11 14 17 21 22 26 29 33 33 34 34 31 27 30 36 35 33 29 24 24 28 31 30 23 19 17 15 11
10 17 14 6 8 9 18 24 18 10 9 10 11 6 6 5 9 13 16 19 19 21 25 26 26 29 29 26 20 19 20 25 20 13 11 12 12 13 14 18 15 12 14 15
48 19 14 21 10 20 19 19 17 11 10 12 14 11 10 7 8 12 14 15 18 19 20 21 21 22 22 22 21 17 16 15 9 5 11 11 11 9 8 8 12 15 18 17
62 52 32 12 26 22 26 21 18 13 9 15 19 17 15 12 9 11 14 16 17 17 18 18 18 17 19 19 21 21 18 15 12 9 13 16 18 20 19 17 16 16 15 16
50 60 49 44 25 31 30 26 24 19 14 18 21 21 17 15 13 11 12 15 15 16 18 18 18 18 16 18 21 23 19 19 16 16 15 16 18 19 21 21 20 18 18 20
42 60 66 63 59 53 40 26 16 16 17 17 23 29 25 21 18 18 16 15 15 15 15 13 11 14 16 17 20 22 23 26 23 21 19 19 20 21 23 25 24 24 25 25
40 28 38 40 45 44 44 39 29 26 18 17 28 32 32 28 23 19 18 17 18 18 17 16 17 19 21 17 20 23 24 27 25 21 22 22 23 25 27 28 28 30 31 32
55 37 27 29 35 38 34 39 36 31 28 24 30 36 34 30 26 23 23 23 23 21 20 20 24 23 24 22 21 21 21 22 24 24 24 25 27 28 30 31 32 34 36 35
58 49 33 26 26 32 31 28 35 37 31 28 31 39 42 37 33 31 30 26 24 25 25 23 24 21 19 18 18 19 19 21 24 26 27 27 28 30 32 34 36 36 35 35
50 53 42 30 23 22 23 26 29 33 33 34 37 37 37 36 37 36 35 31 28 26 25 21 19 18 17 17 19 20 22 24 26 28 29 30 32 34 35 36 36 36 37 40
54 60 52 38 27 22 24 25 28 30 31 34 37 37 38 40 35 30 28 26 27 23 22 21 20 19 19 20 21 24 26 28 29 29 30 31 33 34 36 38 39 40 42 43
52 50 53 48 33 27 28 29 29 29 32 37 38 37 36 31 28 27 24 24 23 21 20 21 20 20 22 24 25 26 27 28 29 30 32 36 39 40 42 42 43 44 44 45
49 45 45 44 39 35 35 32 29 30 33 35 34 35 34 33 32 30 29 25 23 21 21 22 22 23 25 28 28 30 31 33 34 36 38 41 42 43 44 44 45 46 48 50
46 44 48 47 42 34 34 34 34 35 39 41 41 39 37 35 33 30 29 28 26 23 24 24 25 27 30 31 32 34 36 38 39 42 43 43 44 46 47 48 49 50 52 53
50 47 47 41 32 32 37 37 35 36 41 45 46 45 43 40 37 34 31 29 28 29 29 30 31 32 34 36 37 38 41 44 45 46 48 48 48 49 50 51 52 53 54 55
54 46 43 41 38 39 40 38 37 38 40 43 42 43 44 42 40 37 35 34 35 35 35 36 37 37 37 39 40 42 45 48 49 50 51 51 52 52 53 54 54 54 55 56
Wind_Direction_850mb
249 263 273 269 273 284 258 251 261 289 304 325 329 325 339 346 343 342 343 348 357 3 5 2 6 358 162 170 177 184 188 184 180 179 175 170 168 163 158 154 150 149 148 148
288 282 113 284 275 262 261 266 266 288 309 336 325 327 349 351 346 346 350 359 8 18 26 35 52 85 141 151 166 175 175 167 168 162 155 149 151 150 152 148 148 149 146 145
272 323 313 332 244 255 268 244 253 325 314 324 322 329 7 350 349 350 356 8 21 31 41 54 72 93 118 134 147 153 150 150 149 148 147 148 148 147 148 145 146 146 137 138
280 329 14 250 302 247 246 280 254 275 310 321 319 324 11 5 356 358 10 19 30 44 56 71 91 102 113 127 137 140 139 141 144 145 146 147 147 145 142 143 141 131 139 144
209 256 294 303 217 347 30 285 223 300 324 332 334 330 11 7 13 13 18 30 44 57 72 84 94 107 116 120 128 132 132 135 139 142 141 142 140 140 137 131 129 139 140 140
69 143 234 242 182 359 165 280 206 338 335 341 347 16 344 359 17 27 33 40 54 69 82 91 101 115 117 117 122 122 130 133 136 138 138 136 133 132 128 133 137 136 134 136
197 253 283 250 260 280 77 270 347 355 348 349 2 347 332 5 23 34 44 52 57 68 81 96 107 114 114 118 115 122 127 129 130 130 131 129 125 124 136 139 136 136 137 143
172 211 284 208 6 195 172 342 328 346 357 0 359 8 14 21 38 46 53 63 71 81 90 97 101 104 106 108 115 119 120 119 121 119 116 121 129 134 136 136 136 138 148 149
190 217 250 198 241 235 268 326 302 336 356 13 6 18 21 31 52 59 61 71 80 87 95 99 102 104 107 109 113 113 110 111 116 122 124 128 130 128 131 136 143 144 145 147
129 254 236 257 261 260 275 255 302 319 356 33 15 17 43 54 66 74 76 84 90 95 99 103 106 109 109 116 120 124 123 122 123 124 123 124 124 127 133 134 137 148 154 158
263 279 268 263 255 250 221 223 281 285 316 91 63 45 54 76 81 95 90 96 105 104 107 109 112 112 115 119 124 125 125 124 126 127 130 132 134 133 136 135 132 147 159 168
224 230 207 255 311 286 224 236 251 225 183 150 107 80 69 95 102 106 116 114 119 117 118 117 118 116 116 119 127 129 131 131 131 133 141 151 157 158 158 164 168 173 184 204
230 215 212 221 195 149 156 172 193 202 193 157 146 116 91 72 115 118 124 134 135 130 127 123 127 124 121 122 129 133 129 129 126 120 138 157 171 181 177 177 183 209 227 236
224 213 222 221 223 205 189 196 201 193 171 170 154 148 133 125 131 136 143 146 150 149 143 139 139 136 134 134 138 143 146 143 133 140 154 161 175 189 199 206 220 227 237 244
222 222 226 228 223 221 215 210 209 198 195 195 171 166 157 152 152 154 158 157 156 160 167 165 165 172 169 168 163 165 174 192 204 209 192 188 193 197 205 217 225 232 250 246
212 213 222 226 227 221 219 226 228 225 222 202 185 180 177 170 167 161 166 167 171 175 175 174 175 185 192 194 197 194 204 215 222 223 223 225 227 231 234 240 245 253 265 255
185 201 215 223 223 222 220 220 234 229 217 214 197 184 183 183 179 180 176 171 182 182 181 181 194 201 202 209 215 222 223 225 229 232 238 240 240 246 251 255 266 270 270 262
218 233 229 228 224 223 227 230 230 220 220 217 203 194 187 191 187 185 184 189 191 194 198 202 214 224 236 236 236 237 233 224 230 242 251 254 253 252 256 263 269 273 272 265
215 219 214 218 219 224 225 227 227 223 230 231 209 201 190 193 194 195 198 200 201 206 215 223 239 248 251 247 242 244 240 239 239 245 251 253 256 260 263 267 269 269 266 263
206 209 213 211 212 215 218 221 215 216 223 217 201 196 198 194 198 203 206 208 212 219 233 251 255 250 243 243 246 249 251 254 256 256 257 261 265 268 272 273 275 274 273 271
201 201 201 199 196 196 201 206 208 209 208 207 201 200 202 198 204 210 212 214 216 225 243 244 244 243 248 257 261 264 265 265 266 264 263 264 266 269 272 273 275 276 275 274
200 200 200 203 206 207 203 196 185 191 197 194 192 196 203 211 208 206 199 205 223 229 236 243 250 252 262 274 273 272 270 270 271 272 275 278 279 280 280 279 279 278 278 280
199 201 205 210 208 208 199 194 193 189 190 189 192 197 199 201 208 214 213 218 224 230 240 250 257 266 270 273 274 272 272 274 277 278 278 278 278 277 278 280 282 282 284 285
199 198 196 198 204 207 199 195 194 190 187 192 197 199 200 198 200 202 207 218 227 238 250 258 262 269 274 276 278 278 278 275 275 277 277 279 280 281 283 284 284 284 286 287
199 198 199 203 206 204 196 199 199 199 198 198 197 199 200 203 207 214 219 226 233 244 255 261 264 268 271 272 273 275 274 273 275 277 279 281 281 281 282 282 283 284 285 287
200 202 208 209 208 205 204 207 207 207 207 207 204 203 205 210 217 223 229 234 242 247 255 262 263 265 268 272 275 276 276 275 275 277 280 282 282 282 284 283 283 284 286 289
204 206 208 208 208 209 210 212 215 216 217 217 216 215 216 219 223 227 232 239 245 251 257 261 263 265 267 270 274 275 275 275 276 277 280 282 282 281 281 282 285 287 290 293